Weather in Alekseevka

Russia / Belgorod Oblast     50°31′34″N   37°36′02″E
temp.,
°C
wind,
m/s
gust,
m/s
humid.,
%
clouds,
%
prec.,
mm/h
press.,
hPa
HPBL,
m
16 may, sun
sun1600:00+15ssw117525 0.0 101311
03:00+14se22720 0.0 101312
06:00+15s0173100 0.0 101311
09:00+20ese226153 0.0 1014323
12:00+23e2352100 0.0 10131223
15:00+24ene3453100 0.0 10121559
18:00+23ne366953 0.0 1011268
21:00+19ne488230 0.8 1010135
17 may, mon
mon1700:00+16e4879100 0.0 1010121
03:00+15ene4147342 0.0 1008215
06:00+14e412775 0.0 1008210
09:00+20ese716605 0.0 1007666
12:00+24se9165565 0.0 10071433
15:00+25se710565 0.0 10061239
18:00+23se611655 0.0 1006671
21:00+18se4137827 0.0 1007281
18 may, tue
tue1800:00+17sse399087 0.0 1007170
03:00+15s359568 0.0 1008105
06:00+15ssw2592100 0.0 1008168
09:00+19wsw236972 0.0 1008501
12:00+22sw115895 0.0 10081138
15:00+19wsw457794 0.0 1007291
18:00+20s3579100 1.0 1006506
21:00+17sse228498 1.8 100532
19 may, wed
wed1900:00+15s4995100 2.3 1005346
03:00+13se379799 2.4 1005208
06:00+13s5894100 0.0 1005509
09:00+14s589184 0.6 1006680
12:00+18s796655 0.6 10061512
15:00+15s597747 1.4 1006901
18:00+15ssw69795 1.1 1006954
21:00+12s51091100 1.3 1006613
20 may, thu
thu2000:00+12ssw61196100 0.4 1007703
03:00+11sw71194100 0.7 1007702
06:00+10sw61193100 0.4 1009767
09:00+11sw6119143 0.7 1010830
12:00+15wsw8127194 0.3 10121467
15:00+18wsw796092 0.4 10121659
18:00+18w1366100 0.0 1012919
21:00+13ene338099 0.0 101342